Theta_e
301 301 300 299 299 297 297 296 296 296 297 298 298 299 300 299 299 298 299 299 299 298 298 298 297 296 296 294 295 295 295 296 295 296 296 296 296 296 297 296 296 295 294 293 293 292 291 290 289 289 290 290 290 290 290 290 289 289 289 289 288 288 287 287 288 289 289 286 288 288 288 289 290 288 288 289 289 289 289 289 289 289 289 289 289
300 298 298 296 296 296 295 295 295 295 295 296 297 298 299 299 298 299 298 298 298 298 298 298 298 297 296 295 296 296 295 294 294 295 295 295 296 296 296 296 296 295 294 293 293 292 291 289 289 289 289 290 290 291 290 289 288 288 288 287 288 288 288 287 287 289 289 288 286 286 286 287 289 288 288 288 288 289 289 289 289 289 289 288 288
297 296 297 295 295 294 293 294 294 295 296 296 297 298 298 298 299 299 298 298 298 298 299 298 298 298 297 297 296 296 296 296 296 296 296 295 295 295 295 296 295 295 294 293 292 292 291 290 289 289 289 290 289 288 289 288 287 287 288 288 286 287 288 287 287 288 291 289 290 288 285 285 287 287 288 287 288 288 288 289 288 289 288 288 288
297 296 295 294 294 293 292 293 294 294 294 294 295 296 297 298 298 298 298 298 298 298 298 299 299 299 298 297 297 296 295 295 295 295 295 294 293 294 295 295 295 294 294 293 293 292 291 290 290 289 289 290 289 288 288 288 287 287 287 288 289 286 286 286 287 285 286 290 289 289 286 287 285 285 287 288 286 287 288 288 288 288 288 288 288
295 295 295 295 294 294 294 294 293 293 294 294 295 296 296 297 298 298 298 297 298 298 298 299 298 297 295 294 295 293 293 294 293 292 293 293 293 292 293 294 294 294 293 293 293 292 292 291 290 289 289 289 289 289 288 288 287 287 288 287 288 289 286 287 286 285 285 286 290 284 284 285 289 288 286 286 285 286 286 287 289 287 287 287 287
294 294 295 295 294 294 294 293 292 293 293 295 295 296 296 297 298 298 298 297 297 297 298 298 297 296 294 293 292 292 292 291 291 291 291 291 292 293 293 293 293 294 293 293 293 292 291 291 290 289 289 288 289 289 288 288 287 286 287 287 288 289 288 286 285 287 285 287 286 288 292 294 289 286 287 287 284 287 287 286 286 286 286 287 286
293 292 293 293 294 293 294 294 294 293 294 294 294 294 295 296 297 297 297 297 297 297 297 297 296 296 295 295 295 294 293 293 295 295 294 293 294 293 292 293 293 293 293 293 292 292 292 291 290 290 289 288 289 288 288 287 287 287 287 286 288 288 288 287 287 286 285 285 285 286 286 284 289 287 287 286 285 285 284 285 285 285 285 286 286
293 293 293 292 292 292 293 293 293 294 293 292 293 293 294 295 295 296 296 296 296 296 296 297 296 296 295 295 295 295 295 295 294 294 295 294 293 293 292 292 292 293 292 292 292 292 291 291 290 290 289 288 288 288 287 288 288 288 287 287 287 287 288 289 288 286 286 286 285 285 284 284 285 286 289 291 290 286 285 284 284 284 285 285 285
292 295 294 293 293 292 291 293 293 292 291 292 292 293 294 294 295 295 295 295 295 295 295 296 296 296 295 295 295 295 296 296 294 294 293 293 292 293 292 291 291 292 292 292 292 292 291 291 290 289 289 288 288 288 288 288 287 287 286 286 285 285 286 288 287 285 287 287 284 283 284 285 284 285 284 288 288 288 286 284 285 284 285 285 285
291 291 292 293 292 291 291 290 292 292 289 290 291 292 292 293 293 293 294 294 294 294 295 295 295 295 294 294 294 295 295 293 293 292 292 292 292 292 291 291 290 290 291 291 291 291 291 291 290 289 289 288 288 288 288 287 287 287 287 286 286 286 285 286 287 287 286 287 287 286 285 284 285 285 286 284 284 288 288 285 286 285 283 284 283
292 291 292 292 292 291 291 293 292 292 289 290 291 291 291 292 292 292 293 293 293 294 294 294 295 295 294 294 294 294 294 292 291 291 291 290 291 291 290 290 290 290 290 290 291 291 291 290 290 289 289 288 288 288 287 287 286 287 287 287 286 286 285 285 286 287 286 286 286 286 287 286 287 285 285 284 287 284 282 283 283 284 285 285 284
290 291 292 292 294 294 293 293 292 292 292 290 290 290 291 291 291 291 291 292 292 293 293 294 294 294 294 294 294 294 294 292 291 291 290 290 291 290 290 290 289 290 290 290 289 290 290 290 290 289 288 288 288 288 287 287 287 286 286 286 286 286 286 285 285 285 285 285 285 285 287 288 289 289 288 287 286 287 287 285 285 283 281 283 283
289 290 290 291 292 292 292 292 292 292 291 290 289 289 289 290 290 290 291 291 291 292 293 293 293 294 294 294 294 294 294 293 292 292 291 291 291 291 290 289 289 289 289 289 289 289 289 289 288 288 288 288 288 287 287 287 286 286 285 285 285 285 284 285 284 285 285 284 285 285 286 286 287 286 287 286 287 287 287 284 282 282 283 283 281
288 289 289 290 290 291 291 291 291 290 290 290 289 289 289 289 289 289 290 290 291 291 292 292 293 293 294 294 294 293 293 293 292 292 292 291 291 291 290 290 289 289 289 289 290 289 289 289 289 289 289 288 288 287 287 287 286 285 285 285 285 285 285 285 285 286 285 285 286 284 284 285 285 284 285 286 285 284 284 285 282 280 280 282 281
287 289 289 289 289 289 289 290 290 290 290 289 289 289 288 289 289 288 289 289 289 290 291 291 292 293 293 293 293 293 293 293 293 293 292 291 291 291 291 291 290 290 290 290 290 289 289 289 289 288 288 288 287 287 287 286 286 285 285 285 285 285 285 284 284 285 283 284 284 284 284 284 284 283 284 285 285 286 286 285 283 281 279 279 280
287 288 288 288 288 288 288 288 289 289 289 289 289 289 289 289 288 288 288 289 289 289 289 290 291 291 292 292 292 292 292 293 293 292 292 291 291 291 291 291 291 291 291 291 290 290 289 289 289 288 288 288 287 287 286 286 285 285 284 284 284 285 284 284 284 284 284 284 284 284 283 283 283 283 283 284 284 286 286 285 286 285 283 281 279
287 287 287 286 286 286 286 286 287 287 288 288 289 289 288 288 288 288 288 288 288 288 289 289 290 290 290 291 291 291 291 291 292 291 291 291 290 290 290 290 291 291 290 290 290 289 289 288 288 288 287 287 287 286 286 286 285 284 284 284 284 284 284 284 284 283 283 284 283 283 283 283 282 282 282 283 283 283 284 285 286 286 286 284 281
286 286 286 285 285 285 285 286 286 286 287 288 288 289 289 288 287 287 287 286 287 288 288 288 289 289 289 290 290 290 291 291 291 291 290 290 289 290 290 289 289 290 289 289 289 289 288 287 287 287 287 287 286 286 286 285 285 284 284 284 284 284 283 283 283 283 283 283 283 282 283 282 282 282 282 282 283 283 282 283 283 284 284 284 284
284 284 285 285 285 285 285 285 286 286 287 287 288 288 288 288 288 288 287 286 286 287 287 288 288 289 289 289 289 290 290 290 290 290 290 289 289 289 289 289 289 289 289 289 288 288 288 287 287 287 287 286 286 285 285 285 284 284 284 284 284 283 282 282 283 282 282 282 281 281 281 282 282 281 282 281 282 282 282 282 282 283 282 284 283
283 284 284 284 284 284 285 285 285 285 286 287 287 288 287 288 288 288 289 289 288 287 286 286 287 287 288 288 288 289 289 289 289 289 289 288 289 288 288 288 288 288 288 288 288 288 287 287 287 287 286 286 285 285 285 284 284 283 283 283 283 282 282 282 282 282 281 281 281 281 281 281 281 281 281 281 281 281 281 281 281 281 281 281 282
283 284 284 284 284 284 285 285 285 285 286 286 287 287 287 288 288 288 288 288 288 288 288 287 287 286 286 287 287 288 288 288 288 289 289 289 288 288 288 288 288 287 288 287 287 288 288 287 287 287 286 286 285 284 284 284 283 283 283 283 282 281 281 281 281 280 281 280 281 280 280 280 280 280 280 280 280 280 280 281 281 280 280 280 280
283 283 283 283 283 284 284 285 285 285 285 285 286 286 286 286 287 287 288 288 288 288 287 287 287 286 286 286 286 286 287 287 287 287 288 288 288 288 288 287 287 288 287 287 287 287 287 287 286 286 286 286 285 285 284 284 283 282 282 282 282 281 281 281 281 280 280 280 280 280 280 280 280 280 280 279 280 279 279 279 279 279 279 279 280
282 283 283 283 283 283 283 284 284 284 284 285 285 285 286 286 286 287 287 287 288 287 287 287 287 286 286 286 285 286 286 286 286 286 287 287 288 288 288 287 287 288 288 287 287 287 287 286 286 286 286 285 285 284 284 283 283 282 282 282 282 281 280 280 280 280 279 280 279 279 279 279 279 279 279 279 279 279 279 279 279 279 279 279 279
282 283 283 283 283 283 283 283 283 283 284 284 284 285 285 285 286 286 286 287 287 287 287 287 287 286 286 286 286 286 285 285 285 286 286 287 287 288 287 287 288 288 287 287 287 287 286 286 286 285 285 285 284 284 284 283 283 283 282 282 282 281 281 281 280 280 279 279 279 279 279 279 278 278 278 278 278 279 278 278 278 278 278 278 278
282 282 282 283 283 282 282 283 283 283 283 283 284 284 284 285 285 285 285 286 287 287 286 286 286 286 286 286 286 286 286 286 286 286 286 287 287 288 288 287 287 287 287 287 286 286 286 286 285 285 285 285 285 284 283 283 283 283 283 282 282 281 281 281 281 280 280 279 279 279 279 278 278 277 277 277 278 277 278 278 277 277 278 278 278
281 282 282 282 282 283 282 282 282 282 283 283 283 284 284 284 284 285 285 285 286 286 285 285 285 285 285 285 286 286 286 286 286 286 286 286 287 287 287 287 287 286 287 286 285 285 285 285 286 286 286 285 285 285 284 283 283 283 283 283 282 282 281 281 281 281 280 280 279 279 279 278 278 277 277 277 277 277 277 277 277 277 277 277 277
281 281 282 282 282 282 282 282 282 282 282 283 283 283 283 283 284 284 285 285 285 285 285 285 285 284 284 285 285 285 285 285 285 286 286 286 286 286 287 287 287 287 287 286 286 285 285 286 286 286 285 285 285 285 284 284 283 283 283 282 282 282 281 281 281 281 280 280 280 279 279 278 278 278 278 277 277 277 277 277 277 276 276 276 275
281 281 281 281 282 282 282 282 282 282 282 282 283 283 283 283 283 284 284 284 285 284 284 284 284 284 284 284 285 285 285 285 285 285 285 286 286 286 286 287 287 287 286 286 286 285 285 285 285 285 285 285 285 285 284 284 284 283 283 282 282 282 281 281 280 280 280 280 280 279 279 279 278 278 278 278 277 276 277 276 277 276 276 275 275
280 280 280 281 281 282 282 282 282 282 282 282 283 283 283 283 283 284 284 284 284 283 283 283 283 283 284 284 284 285 285 285 285 285 285 285 285 286 286 286 286 286 286 286 286 286 286 285 285 285 285 285 285 284 284 284 283 283 282 282 282 282 281 280 280 280 280 280 280 279 279 279 279 279 280 280 279 279 276 275 275 276 275 274 274
281 281 282 282 283 283 283 283 282 282 282 282 282 282 282 282 283 283 283 284 284 283 283 283 283 283 283 284 284 284 284 284 284 284 284 285 285 285 285 285 285 286 286 286 286 286 285 285 285 285 284 284 284 285 285 286 286 283 282 282 282 281 281 281 280 279 279 279 279 279 279 280 280 280 281 281 281 281 280 278 276 275 274 274 273
281 282 282 283 283 283 282 282 282 282 281 282 282 282 282 282 282 282 283 284 284 283 283 283 283 283 283 283 283 283 283 283 283 284 284 284 284 284 284 284 284 285 285 285 285 285 285 285 285 284 284 284 284 284 286 287 287 287 283 282 281 281 281 280 280 279 279 278 278 279 279 280 280 280 280 281 282 281 281 280 279 278 277 274 272
280 282 282 282 282 282 282 282 281 281 280 281 282 282 282 282 283 283 284 284 284 284 283 283 283 283 283 283 283 283 282 282 282 282 283 283 283 283 284 284 284 284 284 284 284 284 284 284 284 284 284 284 284 285 287 287 288 287 286 283 282 281 281 280 280 279 279 278 278 278 278 278 279 279 279 280 281 282 281 280 280 279 279 279 278
281 281 282 282 282 281 281 281 280 281 281 281 282 282 282 283 283 283 284 283 283 283 283 283 283 283 283 283 282 282 281 281 281 282 282 282 282 283 283 283 283 284 284 283 284 284 284 284 284 284 284 284 284 286 287 288 288 288 287 285 282 282 281 280 280 279 279 278 278 277 277 277 277 279 279 279 279 280 281 280 280 279 279 279 279
282 282 282 282 281 281 280 280 281 281 281 281 282 282 282 283 282 283 283 283 283 282 283 283 283 283 283 283 282 282 281 281 281 281 281 281 281 281 282 283 283 283 283 283 283 283 283 283 283 283 283 284 284 285 287 287 288 288 288 286 282 281 281 280 280 279 279 278 278 277 276 276 276 278 278 278 278 279 279 278 278 277 277 278 279
280 280 281 281 281 280 280 280 280 281 281 281 281 281 281 281 282 282 282 282 282 281 281 282 282 282 282 282 282 282 281 281 281 281 280 280 280 281 282 282 283 282 282 283 283 283 283 283 283 283 283 283 283 286 286 287 288 288 288 287 283 282 281 280 280 279 279 278 278 277 276 275 275 276 277 277 277 278 278 277 277 276 276 277 278
281 281 281 281 281 280 280 280 281 281 280 280 280 280 280 280 280 280 280 280 280 279 280 280 281 281 281 282 282 281 281 280 280 280 280 281 281 281 281 282 282 282 282 282 282 282 282 283 283 283 282 282 283 286 286 287 287 288 288 286 284 282 280 280 279 279 279 278 277 276 276 275 275 276 278 280 279 278 277 276 275 276 276 276 277
281 281 281 282 282 281 280 280 280 280 280 280 280 280 279 279 278 278 278 278 278 278 278 279 279 280 280 280 280 280 280 280 280 279 279 280 280 280 281 281 280 281 281 281 281 282 282 282 282 282 282 282 282 284 286 286 287 288 287 285 284 282 281 279 279 279 278 277 277 276 276 275 275 275 278 281 281 280 276 275 275 275 275 275 276
280 281 282 282 281 280 279 279 279 280 280 280 279 278 277 277 277 277 277 277 277 277 278 278 278 278 279 279 280 280 280 280 280 279 280 281 281 281 281 281 280 279 280 280 281 281 281 281 281 281 281 281 282 283 285 286 286 287 287 285 284 282 280 279 278 278 277 277 276 278 277 275 275 275 279 281 282 280 276 275 275 274 274 274 275
280 281 281 281 281 279 279 279 278 278 279 279 277 276 276 277 277 277 276 276 276 276 277 277 278 278 277 277 278 278 279 279 279 280 280 279 279 280 280 279 279 279 279 280 280 279 279 280 280 280 281 281 281 282 284 285 286 286 286 285 283 282 280 278 277 276 276 276 275 277 278 276 276 276 280 282 282 280 276 276 275 274 274 274 275
280 280 280 280 279 278 277 278 278 278 279 277 277 277 276 277 277 276 275 275 276 276 277 277 277 276 276 275 276 276 277 278 279 279 279 279 279 279 279 279 279 279 278 279 278 278 278 278 279 279 279 279 280 281 281 284 285 286 287 285 283 281 279 278 277 276 274 274 275 275 277 279 279 279 280 282 282 282 276 276 276 274 274 273 275
280 280 281 278 277 277 277 277 278 278 277 277 276 275 276 276 276 275 275 275 276 276 276 275 275 274 273 273 274 275 275 276 277 277 277 278 279 279 279 278 278 278 277 277 277 277 277 277 278 278 277 278 278 279 279 282 284 285 286 286 283 280 279 278 276 275 275 274 274 274 275 278 280 280 280 282 283 283 280 276 276 275 275 276 277
278 277 276 275 275 275 275 275 276 276 276 275 274 274 275 275 274 274 274 275 275 275 274 273 272 272 272 272 272 273 274 274 274 275 275 276 277 278 278 278 278 277 276 276 276 276 276 276 277 276 276 276 277 279 278 280 282 284 285 287 284 281 280 278 276 275 275 274 274 274 274 277 280 280 281 282 283 283 281 276 276 278 278 279 275
275 275 275 274 273 274 275 275 276 275 275 275 272 272 273 273 273 273 274 273 274 272 271 271 270 270 270 271 271 271 272 272 272 273 273 273 274 275 276 277 277 276 276 275 275 276 275 275 275 276 275 275 275 276 279 278 280 282 284 286 286 283 282 278 276 275 274 274 275 275 275 278 280 281 281 282 283 284 282 277 279 279 279 279 277
274 274 274 273 273 273 273 274 274 274 274 273 271 271 272 271 272 274 273 272 270 270 269 269 269 269 269 269 269 270 270 270 270 271 271 271 271 273 275 276 276 276 276 275 276 275 275 274 274 275 275 275 275 275 277 279 279 281 283 285 286 286 283 279 277 276 276 275 275 275 276 279 280 281 281 282 283 284 281 279 280 280 279 279 274
273 273 273 272 272 271 272 272 272 272 272 272 271 270 270 270 271 272 270 269 268 268 267 267 267 267 267 267 267 267 267 268 268 269 269 270 270 272 273 274 275 275 275 275 275 275 275 275 275 274 275 275 274 274 274 276 279 280 281 283 285 286 284 282 277 276 277 276 277 278 278 279 281 282 282 282 283 283 282 280 280 280 279 276 272
272 271 271 271 270 269 269 269 270 270 270 270 270 269 268 269 271 270 269 267 266 265 265 265 265 265 265 266 265 265 266 266 267 268 268 269 269 270 271 273 274 275 275 275 275 275 275 275 274 275 275 275 274 274 274 274 276 278 280 281 283 285 284 283 280 277 278 279 279 279 279 280 280 281 280 280 280 281 282 280 280 279 277 274 272
269 270 270 269 268 267 267 267 267 268 269 269 268 269 269 269 268 268 267 265 264 264 264 264 264 264 264 264 264 264 264 265 265 266 267 268 269 270 271 272 273 274 274 274 275 275 275 275 274 274 275 275 274 274 273 273 274 275 277 278 279 281 284 283 280 278 278 277 278 278 278 279 280 281 281 281 281 281 281 279 278 278 273 272 270
269 268 267 266 266 266 265 265 266 267 267 267 267 267 267 267 266 266 264 263 262 263 262 262 262 262 262 262 262 264 264 263 264 265 266 267 268 269 270 271 272 273 273 274 274 274 274 275 275 275 275 274 274 274 273 273 273 274 275 277 278 279 281 281 279 277 277 276 277 278 279 278 278 279 279 278 278 278 276 273 272 270 270 269 270
266 266 265 265 264 264 264 264 264 265 265 265 264 264 265 264 264 263 261 261 261 261 261 260 261 261 261 262 262 262 262 262 263 264 265 266 267 268 269 270 272 274 274 274 274 275 275 276 276 275 275 274 274 274 274 276 274 276 275 275 276 277 280 281 280 279 276 276 276 276 275 275 275 275 275 273 271 269 268 268 268 268 268 268 268
264 264 263 263 262 262 261 261 261 262 261 261 261 261 262 262 261 261 260 259 259 259 259 259 259 260 260 260 260 261 261 262 263 263 264 265 269 272 271 270 270 274 277 278 279 276 276 276 276 276 277 275 275 276 278 279 279 279 279 279 279 280 281 281 281 281 277 274 274 274 274 274 274 273 271 271 270 269 266 264 266 268 266 267 266
261 260 259 259 259 258 258 258 258 259 258 258 258 258 259 259 259 259 259 258 258 258 258 258 258 258 259 259 260 260 260 261 261 261 262 262 262 264 270 272 273 273 274 276 277 279 280 281 279 277 278 281 281 281 280 279 280 280 280 280 280 281 282 282 282 278 275 273 273 272 273 273 273 272 271 270 269 268 266 264 264 264 265 265 265
Wind_Speed
7 5 4 4 5 6 6 6 7 7 9 9 10 12 14 13 12 15 11 10 10 10 10 10 11 9 7 10 11 9 10 9 9 9 9 9 10 10 10 9 9 10 10 10 9 8 8 8 8 9 8 9 9 9 9 8 7 6 6 4 7 6 3 3 4 4 8 6 5 5 4 2 2 3 3 3 2 2 2 2 2 3 4 4 3
4 6 8 6 6 5 6 6 5 7 10 10 12 14 14 13 15 13 8 10 11 12 11 11 10 11 12 12 10 8 9 11 12 11 11 9 10 10 10 9 10 11 10 10 9 10 9 9 9 10 9 8 8 7 8 7 7 7 7 5 1 5 5 6 5 5 2 5 6 4 3 2 1 1 1 1 1 2 1 2 2 3 4 4 4
6 6 4 5 6 6 5 5 7 9 7 9 11 9 10 11 12 11 10 12 12 14 11 11 10 12 11 8 10 7 7 6 4 5 5 7 7 8 8 9 10 9 10 10 9 9 9 9 10 9 10 9 9 9 9 9 8 9 10 8 6 0 2 2 5 4 4 3 2 5 3 3 2 3 1 2 0 2 1 2 2 3 3 3 3
13 10 9 8 7 7 5 6 8 6 7 6 7 10 8 10 11 12 12 12 11 12 14 12 11 9 8 4 6 7 6 6 7 6 7 7 9 8 8 8 10 10 9 10 9 10 10 10 9 9 9 10 10 10 10 10 9 8 8 7 7 6 4 5 3 4 2 7 4 1 2 1 2 7 7 3 0 2 2 2 1 2 3 2 3
10 9 10 9 9 7 7 8 6 6 7 8 7 8 8 11 11 12 11 12 11 12 12 9 7 7 6 5 5 5 3 7 7 8 8 8 7 9 10 8 9 8 10 11 10 11 10 10 9 9 9 9 8 9 10 11 11 9 9 8 11 10 8 3 4 3 6 3 3 6 2 1 4 2 4 3 2 3 3 2 2 0 1 1 2
3 6 8 8 8 10 8 8 7 7 8 8 6 7 7 7 7 8 8 7 9 10 11 8 8 7 8 8 8 8 8 8 13 14 9 12 12 5 7 10 9 10 9 10 10 10 10 10 10 10 9 9 9 8 8 7 9 10 11 10 11 6 9 6 5 4 2 2 5 2 1 2 5 2 3 4 1 2 0 1 1 0 0 1 1
4 5 6 6 8 9 9 8 7 7 7 5 5 6 7 6 6 7 8 7 7 8 10 9 8 7 10 11 9 10 10 9 4 3 8 6 6 11 9 9 11 11 10 10 10 9 9 9 10 10 10 9 9 8 9 10 10 10 8 9 9 6 7 9 11 7 2 3 2 2 1 1 1 7 4 3 2 2 3 4 3 2 1 2 2
2 3 5 4 5 5 9 10 9 8 7 6 5 5 6 6 6 7 6 6 6 6 9 10 9 10 11 12 11 10 10 7 6 6 4 6 7 8 8 8 9 10 10 10 10 10 10 9 10 9 10 10 10 10 10 9 8 6 8 8 6 6 10 10 11 7 11 6 3 3 1 1 2 4 2 6 3 4 4 2 1 2 2 3 2
2 2 5 6 6 7 7 9 10 10 8 7 6 5 5 4 5 5 7 7 7 10 10 10 10 9 10 9 10 9 7 5 4 5 6 6 8 6 7 7 7 9 9 10 10 11 10 10 10 10 10 10 10 9 9 9 12 11 11 10 10 8 8 6 7 9 9 8 7 1 1 1 2 3 1 2 3 5 2 4 4 2 2 3 2
3 3 5 6 4 5 5 5 8 8 7 7 6 5 3 2 4 5 7 7 7 10 10 13 12 10 10 12 14 11 8 6 6 8 9 8 9 9 8 7 8 8 8 9 9 10 10 9 10 11 11 10 9 11 10 11 10 11 12 12 10 11 7 6 9 7 7 5 8 7 6 3 1 1 0 2 3 1 3 5 4 7 6 3 2
5 6 4 5 6 6 9 12 10 9 8 8 8 7 5 2 3 5 6 5 7 9 11 13 13 12 12 14 14 13 10 7 7 8 8 8 9 9 8 8 8 9 8 8 9 9 10 10 9 10 9 10 9 10 11 10 10 10 9 10 11 12 9 8 7 6 7 6 7 7 10 11 11 9 9 5 5 4 2 2 2 3 2 3 2
7 9 11 10 11 12 13 15 13 12 10 10 8 8 7 6 3 4 4 5 5 7 9 10 11 13 12 12 13 12 11 9 12 11 9 10 9 8 6 6 7 7 7 7 9 9 9 9 10 9 10 9 10 8 7 9 8 7 7 9 8 8 7 8 7 8 9 7 8 7 7 8 6 6 8 7 9 6 7 5 4 3 1 3 1
7 8 10 12 11 12 13 13 13 12 11 11 10 8 7 6 6 5 6 4 5 6 9 9 10 11 10 11 11 10 11 11 11 10 7 8 6 6 7 7 5 7 8 9 10 12 9 9 10 11 10 9 9 9 10 10 9 9 9 9 9 10 10 10 9 11 11 10 10 8 5 5 6 1 4 7 4 3 6 4 1 1 2 2 1
7 8 11 12 12 12 12 12 11 11 13 13 12 11 8 6 6 5 7 4 5 5 6 7 9 9 8 9 9 8 10 9 8 8 7 6 5 7 7 7 8 10 9 11 10 10 9 11 10 9 9 9 10 11 10 10 10 10 10 11 12 10 8 11 10 10 8 9 5 7 7 7 5 4 5 6 7 7 5 8 6 2 1 0 1
12 13 13 13 14 14 13 10 9 10 13 13 11 11 9 9 7 7 8 6 5 5 4 6 6 7 7 7 8 6 7 7 6 5 6 7 5 6 6 6 7 7 8 6 7 9 10 9 11 11 11 11 10 10 9 10 10 9 10 11 9 9 10 9 9 10 9 10 9 8 7 6 6 5 5 7 7 8 8 8 8 6 2 1 2
11 11 12 13 11 9 8 11 14 15 16 14 14 12 11 11 9 8 6 7 5 4 4 5 6 5 6 7 7 6 6 5 5 6 7 7 8 8 7 8 7 6 6 6 8 8 9 9 9 10 10 10 10 11 10 10 11 11 9 10 11 7 10 12 10 9 10 11 10 7 6 7 5 5 6 5 6 5 4 6 8 8 7 3 2
11 11 11 11 10 11 11 13 13 14 14 15 15 12 11 9 10 11 9 7 7 5 4 4 5 5 6 6 5 6 6 7 7 7 7 6 7 8 8 8 8 7 7 7 8 8 9 10 10 9 9 9 9 10 10 9 9 10 10 11 12 10 10 12 9 10 9 9 7 9 8 6 6 5 4 5 5 4 4 5 6 9 7 5 3
10 11 11 11 12 14 13 12 11 11 11 12 15 14 12 11 11 11 11 10 8 6 6 5 5 5 5 6 6 6 7 7 7 7 5 6 6 7 7 8 9 9 9 9 11 10 10 11 12 12 10 9 10 8 9 8 8 9 9 9 8 8 10 8 9 9 9 7 8 7 7 6 6 7 6 6 6 6 6 5 5 2 4 7 5
11 12 12 12 12 12 11 11 11 11 11 11 11 12 14 15 15 13 13 10 9 7 6 5 4 4 4 5 6 7 7 7 7 7 7 8 9 8 9 10 7 9 10 9 9 9 10 11 11 11 9 10 9 9 8 8 8 8 8 8 8 9 9 10 8 9 8 8 9 10 8 6 7 7 6 6 5 6 6 5 4 3 3 4 5
9 9 9 9 9 9 9 10 11 12 12 11 11 11 14 11 13 14 14 14 14 14 10 9 7 5 6 5 6 7 7 8 8 8 8 9 9 9 10 10 11 9 10 10 9 10 11 10 10 10 11 10 10 9 9 9 8 9 8 9 9 10 10 10 9 8 7 9 10 11 9 8 7 7 7 6 6 5 5 5 5 4 4 3 4
8 6 6 6 6 6 7 7 6 6 8 10 11 12 11 12 14 15 16 17 18 15 13 10 8 8 7 8 8 7 9 8 8 8 9 9 8 8 9 10 8 10 10 10 10 11 10 10 10 11 11 11 11 11 10 9 10 10 9 9 8 11 12 10 9 10 9 9 10 10 9 8 8 9 8 7 6 7 6 5 5 5 5 5 6
8 7 7 8 6 5 4 5 6 9 10 12 10 10 15 16 15 16 16 16 15 15 13 13 11 9 9 9 9 8 8 7 8 8 9 9 8 8 9 7 10 10 10 12 13 12 10 11 11 11 11 10 11 11 11 11 11 11 11 8 9 11 11 11 10 11 11 8 10 11 10 10 10 10 9 9 8 8 8 7 7 7 7 6 5
10 10 9 9 11 12 13 16 18 17 17 17 17 17 17 17 16 14 15 15 13 12 11 10 10 10 10 9 8 8 7 8 8 8 9 9 9 9 8 10 11 10 10 11 11 10 12 12 14 12 10 11 11 11 10 11 12 12 12 11 13 11 12 12 13 13 11 10 11 11 11 10 7 10 9 8 8 9 8 9 9 7 8 7 7
9 9 10 11 10 11 14 16 16 16 16 16 14 13 12 12 12 11 13 13 12 12 10 10 9 10 9 9 9 9 9 8 8 8 9 10 10 9 9 10 11 9 10 9 10 12 12 12 14 14 14 14 14 14 14 15 17 17 17 17 16 15 15 15 13 11 12 13 13 11 11 12 11 11 10 9 9 9 9 9 8 8 7 8 7
11 12 11 11 13 15 13 11 11 11 11 11 12 12 12 12 11 11 11 10 10 10 10 10 10 11 11 11 11 10 9 10 9 8 10 10 10 10 9 10 10 10 10 9 9 10 12 13 13 14 15 15 16 15 16 16 15 15 16 16 16 16 16 16 17 16 14 12 12 14 12 12 13 12 10 10 10 12 9 9 9 8 8 7 6
10 11 13 12 9 8 10 10 9 9 9 10 10 10 10 10 12 10 11 10 10 9 10 10 11 12 12 13 12 12 12 12 11 10 10 9 9 9 10 9 9 11 10 10 10 10 11 13 14 14 14 15 15 15 16 16 16 15 15 15 15 15 16 16 16 16 17 16 13 14 13 14 14 14 13 11 11 14 11 10 11 9 8 8 8
8 7 7 8 10 11 9 9 9 8 8 8 8 9 9 9 9 9 10 10 10 10 11 10 10 11 12 13 13 13 12 11 11 11 10 9 9 9 9 10 9 11 11 10 10 11 11 13 14 13 14 14 14 15 16 16 16 16 16 16 16 16 16 15 15 16 16 15 11 12 13 15 16 14 13 15 13 13 11 13 12 12 10 10 9
8 9 10 10 9 9 9 8 8 8 7 7 6 6 7 8 10 10 9 9 8 10 10 10 10 10 10 11 11 11 11 11 10 10 10 10 9 9 9 8 8 9 10 11 11 12 12 12 13 13 13 12 14 15 15 16 15 16 15 16 16 16 16 15 15 15 15 16 11 13 13 14 14 14 14 13 15 14 12 12 11 10 11 11 10
2 4 5 5 8 8 10 10 9 8 8 7 6 6 6 5 5 7 7 9 7 8 8 8 8 9 9 9 9 9 9 10 10 10 11 11 11 10 9 8 8 8 8 9 10 11 12 12 12 12 12 12 13 15 14 14 15 15 15 16 16 16 16 16 16 15 12 10 10 11 11 12 18 18 18 14 16 15 13 12 11 12 12 11 8
4 5 5 4 6 6 7 8 10 10 11 10 8 7 7 7 8 8 8 8 6 8 8 9 8 8 8 8 8 8 9 9 10 11 11 11 11 10 9 8 8 9 8 8 9 10 11 12 12 12 12 12 13 12 14 20 15 14 15 14 13 15 16 15 14 11 10 12 11 10 13 14 18 20 21 22 24 24 20 14 14 14 12 11 11
4 5 5 5 5 6 6 6 7 7 8 8 8 7 7 7 7 7 8 8 7 8 8 8 9 8 8 8 8 9 9 11 10 10 9 10 11 10 10 9 8 8 8 8 9 10 10 10 12 12 13 13 13 12 17 18 22 21 15 14 14 14 14 15 16 17 14 12 11 11 9 13 16 17 18 23 25 26 25 20 19 20 18 17 16
4 5 5 5 6 6 7 7 7 7 6 6 6 6 6 7 7 8 7 7 6 7 8 8 8 8 8 9 9 9 10 10 10 11 11 10 9 10 10 10 9 9 8 6 8 10 10 10 10 12 13 13 13 14 17 20 22 23 20 15 13 13 13 15 15 15 10 10 12 11 10 8 10 13 12 16 20 23 23 21 22 22 22 19 18
5 6 6 6 7 7 7 7 6 7 6 6 6 5 6 5 7 8 7 7 7 7 7 8 8 7 8 8 8 8 8 9 9 9 9 9 10 10 11 11 11 9 8 8 9 8 10 10 11 12 13 13 13 12 18 20 21 23 25 19 13 13 13 15 16 13 11 11 10 10 10 9 8 17 13 12 13 16 20 23 22 23 23 23 20
7 7 7 7 6 6 6 7 7 7 7 6 5 5 6 5 5 6 7 8 8 8 7 8 7 6 8 8 8 8 8 9 8 8 8 9 9 10 10 9 8 8 8 9 8 9 9 9 10 12 13 13 13 13 18 20 21 23 24 21 14 14 14 14 16 14 10 11 12 11 11 10 10 13 12 13 12 11 13 15 15 14 13 18 20
9 8 8 7 8 8 7 7 7 7 6 5 5 5 5 5 5 7 7 7 7 8 7 8 6 7 7 8 8 8 9 9 9 9 8 8 8 9 10 9 9 9 9 10 9 9 9 9 10 10 11 12 12 13 17 20 21 23 24 21 14 13 13 13 14 14 12 10 10 9 10 10 10 12 12 15 13 13 15 14 14 14 12 12 14
9 9 10 9 8 8 7 8 6 5 7 5 6 5 5 7 6 7 8 6 6 7 7 8 6 5 6 7 8 9 9 9 9 9 9 10 9 8 9 9 8 8 7 7 8 8 10 11 11 10 11 13 11 12 16 19 21 22 24 15 13 14 14 13 13 13 10 8 8 10 10 10 11 10 17 25 19 13 16 17 17 14 12 11 11
9 9 11 10 9 8 8 7 8 8 8 8 6 6 6 7 6 6 6 6 6 7 7 8 7 8 7 7 8 9 9 9 8 9 9 10 10 11 10 7 7 7 8 9 9 9 9 9 11 10 11 12 11 11 16 18 20 22 19 13 13 12 13 13 13 11 8 9 8 10 11 10 12 12 20 25 26 21 15 17 16 15 12 11 9
9 8 8 9 9 8 7 8 10 11 10 7 6 6 6 7 8 8 6 8 7 9 9 7 8 7 9 9 9 10 11 11 10 9 10 10 9 8 9 7 8 10 9 8 7 8 9 9 10 12 11 12 12 9 14 17 20 22 18 14 12 12 13 13 12 10 6 7 9 17 16 12 12 13 24 27 28 22 15 16 15 15 15 12 10
9 9 10 10 10 8 8 8 8 11 11 7 7 6 7 8 9 9 7 9 9 9 9 9 9 8 8 9 9 11 12 12 12 11 10 11 11 9 9 7 7 8 9 9 7 7 9 8 9 11 12 13 12 10 14 17 20 22 19 13 12 11 12 12 10 10 8 4 7 13 21 16 14 16 27 27 29 23 16 16 17 16 15 14 13
9 7 9 9 7 5 8 10 11 12 9 8 7 7 8 11 11 9 9 11 9 9 9 8 8 8 7 8 9 11 12 13 13 13 13 12 11 10 9 9 8 7 8 8 7 7 10 10 9 9 10 10 12 10 9 17 19 22 24 15 11 11 13 12 10 9 10 8 7 7 15 22 22 23 26 28 28 28 17 15 14 15 16 14 10
8 9 6 4 5 5 8 11 11 11 9 8 7 7 10 11 11 10 13 12 9 9 9 7 7 8 8 9 9 10 12 13 12 13 14 13 11 11 11 10 10 9 8 9 9 9 9 10 9 8 9 10 10 11 10 16 19 22 25 24 12 14 13 11 10 11 9 9 8 9 8 19 24 24 26 27 28 29 21 15 15 14 14 13 15
6 6 6 6 6 8 9 11 11 11 9 7 6 9 11 12 11 14 14 9 9 9 7 6 8 9 9 10 11 11 11 11 13 13 14 15 14 13 12 12 10 9 10 11 11 9 9 10 9 8 9 10 9 13 10 13 20 23 25 29 17 14 13 11 12 12 9 6 8 9 7 16 25 25 26 28 30 29 28 14 11 13 14 19 14
9 10 8 6 8 11 12 13 13 11 9 7 6 10 12 13 14 17 11 7 8 6 7 8 10 11 12 12 12 12 12 11 12 13 14 16 16 15 15 13 12 12 11 12 11 10 9 10 10 9 8 9 9 9 15 12 18 23 26 28 28 16 19 14 13 13 13 10 7 10 11 22 25 26 28 30 29 31 26 14 21 19 19 21 16
8 7 9 7 10 11 13 13 13 12 10 8 7 11 13 15 17 13 8 8 6 7 8 10 12 12 13 13 12 12 12 12 13 13 14 16 17 16 14 12 12 11 11 11 11 9 8 10 11 11 9 8 8 8 11 18 16 23 26 28 30 25 22 14 13 12 13 8 9 9 11 22 26 28 29 29 29 28 19 24 24 24 23 22 11
12 13 11 7 10 12 13 15 15 14 12 10 8 11 15 18 16 9 8 8 8 9 10 12 13 14 14 13 13 13 14 13 13 12 14 14 16 15 14 13 11 11 11 11 12 10 10 10 10 11 11 8 7 8 7 13 21 22 25 27 28 29 24 23 15 11 11 10 13 18 22 25 27 27 29 28 26 28 26 24 27 27 25 12 12
11 11 11 9 10 11 13 15 18 16 15 11 11 10 15 16 12 9 9 8 9 11 13 14 15 14 15 15 16 17 16 14 14 12 13 13 14 15 14 14 13 12 12 11 12 11 10 11 11 11 11 10 8 7 9 9 12 17 18 24 28 28 27 27 21 14 17 19 21 23 26 26 27 24 19 16 14 15 22 26 27 26 13 11 12
13 13 11 12 12 13 15 16 17 17 14 12 12 12 13 12 11 11 9 9 10 13 15 15 16 15 15 15 16 14 15 15 15 13 12 13 13 13 14 14 13 13 12 12 12 12 11 11 12 12 11 10 8 9 9 9 9 9 11 12 15 18 23 24 18 13 15 13 17 18 16 19 16 24 23 17 14 14 17 18 17 14 9 11 11
13 12 11 13 14 15 16 15 17 16 15 13 14 14 13 12 11 10 9 10 13 14 15 16 18 16 15 15 15 17 18 15 15 13 13 13 13 13 14 14 14 13 12 13 12 12 12 12 12 12 10 9 10 10 10 10 10 11 11 11 11 12 12 12 13 12 12 12 13 16 19 15 15 15 15 12 11 10 8 6 7 9 10 9 11
15 15 13 13 13 16 15 18 16 16 13 15 14 13 12 13 10 10 11 14 16 18 18 19 18 16 17 15 14 14 14 14 15 15 13 14 13 14 14 15 16 13 13 13 13 14 14 13 12 12 11 11 11 12 13 13 13 16 13 11 11 12 12 12 13 14 11 10 11 12 12 12 11 12 11 10 9 10 8 9 10 10 9 10 9
12 11 13 15 14 14 17 19 21 17 18 16 16 14 14 13 13 11 14 15 18 18 19 19 17 16 16 15 13 12 12 11 12 11 13 14 18 25 20 17 17 22 29 30 24 18 16 13 12 13 12 14 14 13 10 17 21 22 24 24 20 19 18 12 16 26 16 12 13 13 13 14 14 13 10 10 11 11 12 12 10 10 10 10 10
14 15 16 16 17 19 21 20 19 17 17 18 19 17 16 16 14 15 16 17 16 16 17 18 16 15 15 14 12 10 11 9 11 10 12 14 17 17 26 32 32 32 32 33 33 35 37 33 22 16 15 22 24 20 14 19 23 24 26 26 25 24 25 23 24 20 16 15 14 14 14 13 14 13 13 12 12 12 11 13 10 9 9 10 8
Wind_Direction
294 278 299 286 280 264 249 233 230 228 226 210 204 207 205 201 190 203 194 184 178 175 181 180 181 177 192 201 205 184 194 189 196 199 198 197 187 191 186 186 178 178 181 176 179 170 168 157 158 167 166 168 169 179 170 164 166 168 148 160 156 150 148 164 176 145 124 90 77 81 83 52 90 68 72 78 86 105 120 122 125 116 104 100 98
333 348 6 343 311 287 274 250 221 222 226 211 210 210 206 200 201 203 181 188 192 189 186 188 189 190 184 194 188 183 183 191 199 194 200 196 193 190 190 182 180 182 178 177 174 171 165 166 169 169 170 174 169 145 152 160 158 160 159 150 254 175 154 179 181 159 148 155 150 138 89 119 190 315 32 58 114 123 137 131 134 121 114 117 119
325 45 4 331 300 293 276 260 251 235 243 216 223 214 207 205 209 196 193 193 198 196 189 197 191 195 192 188 187 186 199 206 216 205 195 200 197 196 191 190 183 180 176 178 175 173 171 169 176 167 174 162 158 165 165 171 174 171 179 171 153 108 101 168 197 255 128 108 108 123 158 157 203 237 216 244 228 187 152 132 131 118 111 106 115
336 8 338 294 302 292 301 277 256 260 258 256 232 222 216 215 208 200 200 200 197 199 202 203 197 194 196 132 168 183 178 161 190 181 187 179 202 192 199 189 186 186 172 173 178 181 175 176 168 174 175 177 170 162 172 176 171 177 183 192 162 145 188 182 221 200 194 153 165 250 133 194 170 217 199 174 209 205 184 138 127 129 134 121 107
342 344 308 309 317 319 296 285 297 268 256 249 235 223 216 217 211 204 201 200 200 197 197 186 165 159 142 84 104 113 93 162 176 207 187 188 188 194 195 184 188 182 180 184 181 177 176 176 173 174 175 179 174 172 175 182 180 179 176 174 191 178 162 167 190 184 226 298 133 130 113 224 233 86 140 209 165 190 198 161 134 130 142 114 86
45 272 282 305 313 324 328 318 300 267 261 253 242 238 234 231 216 211 210 202 203 195 188 173 180 171 161 166 175 180 193 182 198 197 166 189 196 138 175 192 184 191 186 186 187 179 178 177 172 170 176 177 184 182 172 164 178 180 192 190 191 220 163 153 169 201 238 209 246 335 322 193 159 175 162 200 149 257 203 212 184 166 292 188 109
303 294 304 330 330 337 321 314 303 284 274 283 266 246 237 232 208 205 205 200 195 188 180 178 183 187 194 201 202 200 206 217 212 167 192 189 172 186 183 176 190 187 186 185 187 185 180 179 178 178 175 175 174 171 177 185 182 190 175 192 200 167 157 173 181 171 136 235 214 229 209 262 217 140 197 84 192 170 212 204 185 168 216 250 229
254 294 318 310 308 318 313 314 311 316 330 330 295 281 245 231 205 203 195 183 169 174 181 187 190 192 198 207 211 216 219 224 185 203 179 181 189 187 181 186 184 189 182 187 185 182 182 183 183 178 176 179 174 183 182 181 178 180 186 195 184 193 194 186 172 167 176 173 162 173 73 61 26 18 76 172 146 168 186 145 232 201 203 219 240
246 320 354 333 321 315 305 315 326 340 354 336 305 281 261 237 215 197 195 177 173 171 178 192 199 196 201 205 216 222 223 220 155 164 177 175 190 180 187 182 182 192 188 185 189 186 187 184 179 181 180 179 182 183 185 177 181 174 176 187 195 195 204 199 156 183 199 169 148 153 108 66 36 34 61 31 158 177 177 179 178 137 223 206 218
284 321 337 333 307 292 287 292 340 351 339 333 328 318 293 207 191 201 210 186 174 178 183 188 191 191 203 210 216 219 207 193 167 177 177 169 189 188 184 179 185 184 191 192 189 192 188 183 185 185 185 180 184 188 178 178 180 185 188 189 187 193 192 199 193 184 196 166 187 146 153 133 85 113 64 119 32 4 182 189 186 173 193 176 181
3 5 343 334 324 331 2 15 351 349 353 357 353 353 344 314 207 210 222 194 184 185 185 194 196 195 202 207 213 218 208 193 186 195 173 176 196 187 185 185 178 190 184 189 194 191 194 190 188 190 187 187 188 186 189 181 184 186 184 187 193 193 189 191 202 185 185 178 185 182 176 173 173 176 183 187 170 157 134 220 181 210 185 156 170
356 11 352 355 7 6 10 9 360 348 356 4 1 349 350 333 332 273 261 219 205 195 194 201 201 209 211 203 209 213 204 199 207 207 193 197 199 194 182 174 191 186 183 186 196 192 193 193 190 187 191 189 194 186 181 186 181 178 182 191 194 199 191 191 197 185 185 185 197 199 198 196 191 185 178 169 173 188 177 169 163 131 231 241 30
10 3 2 357 4 4 6 360 355 356 358 356 356 353 342 341 327 307 277 263 234 213 208 206 209 218 218 215 214 207 210 210 213 214 193 202 191 191 179 196 171 188 198 198 198 192 190 186 189 194 191 192 186 181 186 179 177 183 184 186 191 192 194 188 193 198 183 186 193 197 197 195 199 145 154 171 180 117 161 127 111 105 170 130 122
24 19 20 8 356 355 360 3 354 354 2 4 357 356 349 333 335 301 290 299 267 243 232 222 223 224 223 226 227 217 217 212 216 216 200 203 195 201 193 194 194 201 194 205 191 188 190 199 195 196 195 190 188 188 181 181 177 181 181 187 193 197 188 198 204 197 197 207 184 182 198 193 187 165 168 160 160 150 172 172 138 120 53 249 111
18 20 22 20 16 7 357 343 345 9 16 9 5 359 351 347 341 330 312 314 294 277 283 257 253 242 236 234 231 230 229 220 215 209 201 195 195 203 201 202 208 206 211 207 194 197 201 197 198 195 194 191 189 188 189 181 181 180 187 191 192 188 191 190 202 192 192 194 195 195 189 194 185 173 172 184 171 182 164 159 150 146 196 242 244
25 24 27 29 22 10 0 4 11 14 14 17 15 6 2 354 343 335 322 315 318 305 293 291 279 283 270 252 250 243 244 244 235 200 199 187 195 194 196 198 208 205 209 199 207 200 204 208 206 209 202 199 194 193 187 184 181 184 184 187 194 176 188 190 198 193 201 196 196 187 185 203 178 178 190 179 186 178 165 160 168 165 161 196 188
24 29 28 23 21 18 15 16 17 15 15 14 14 14 12 0 355 351 350 347 343 334 295 277 281 286 277 282 277 265 253 243 240 233 215 195 191 200 203 202 197 194 198 200 199 195 200 204 208 211 210 208 203 202 196 192 185 192 189 187 194 181 185 192 185 193 197 186 191 189 196 184 183 174 183 188 177 170 177 182 185 182 182 193 172
21 23 23 21 20 17 15 16 16 13 14 15 14 11 15 22 22 16 8 1 343 333 323 300 283 270 273 275 266 251 250 249 247 241 216 206 201 199 203 204 205 204 196 194 196 194 197 200 207 208 208 205 208 204 204 198 189 202 198 200 195 171 189 188 194 187 188 178 185 185 193 191 176 181 189 177 176 175 168 181 189 177 172 191 188
23 18 17 16 16 15 13 11 10 17 17 20 18 17 19 18 12 15 14 5 353 347 349 332 313 279 257 256 257 256 245 242 236 227 214 212 212 206 207 215 207 201 201 195 194 194 194 198 199 202 198 204 201 205 200 202 198 202 199 200 186 186 191 194 188 184 182 175 182 188 189 192 172 183 173 176 179 174 176 173 180 158 183 198 169
23 20 18 16 14 15 15 16 17 17 17 14 18 21 24 20 19 13 9 11 14 17 2 342 324 305 287 276 262 251 249 242 237 231 226 220 213 208 210 210 212 201 205 198 198 199 197 195 197 196 198 196 197 196 193 198 196 207 196 198 190 183 194 195 187 188 175 183 181 190 190 186 173 175 179 179 179 180 168 175 173 175 168 174 156
29 25 22 21 22 22 25 27 30 29 29 25 23 20 18 19 21 18 16 11 11 6 4 353 335 315 301 285 273 263 257 250 249 240 242 241 233 222 220 219 203 211 201 202 203 201 198 199 197 202 199 195 191 190 189 190 197 203 204 201 185 191 192 195 178 186 185 182 187 188 186 187 170 179 181 172 176 176 171 174 173 174 175 172 171
22 23 21 21 23 31 38 36 37 33 28 25 20 21 23 23 18 15 13 15 8 2 359 349 345 337 322 304 293 280 266 263 253 248 244 244 238 232 230 222 219 220 204 211 209 206 202 200 201 205 204 199 198 194 186 188 196 196 201 199 200 191 195 192 183 188 187 185 181 185 185 183 182 185 175 181 177 171 175 173 182 183 181 175 182
10 11 14 14 16 14 14 17 18 19 17 18 18 19 16 15 15 12 11 6 3 356 352 350 349 346 338 325 310 293 282 271 262 258 254 249 246 241 228 226 228 225 216 215 211 206 205 204 209 209 203 203 201 198 195 194 197 196 199 201 204 193 196 189 191 193 183 177 182 190 187 174 169 185 187 182 171 178 177 182 181 180 181 178 178
9 13 12 14 13 14 20 18 16 14 13 12 12 14 14 14 13 9 8 1 358 357 351 353 356 358 354 345 335 320 304 287 272 266 261 258 252 249 236 236 236 231 225 217 214 212 208 207 211 210 208 209 206 206 205 206 207 203 204 205 204 204 204 206 201 184 178 183 188 180 185 175 176 182 182 181 186 181 181 182 177 182 183 177 179
13 12 9 9 14 16 15 14 14 12 10 10 9 8 8 6 7 8 3 356 356 353 352 353 355 358 3 7 2 351 336 313 297 284 272 265 259 254 247 240 238 238 232 222 217 211 213 212 213 211 209 209 207 204 207 209 209 208 208 206 205 205 207 209 206 202 193 185 183 191 176 172 176 182 180 186 182 182 181 177 182 179 184 176 166
5 5 8 9 4 5 10 9 9 9 9 5 4 2 2 1 359 359 358 355 352 352 350 352 355 359 0 2 1 0 355 345 326 310 292 279 268 259 252 248 239 241 236 227 220 212 215 217 216 215 213 213 209 206 210 210 208 207 208 209 208 207 208 208 207 206 200 196 190 188 176 177 178 182 185 180 178 182 176 179 179 181 176 169 174
356 353 350 352 5 4 358 3 2 1 3 1 358 356 354 354 352 354 352 350 347 350 349 352 354 358 358 358 357 355 352 349 342 331 319 304 288 271 258 253 242 240 239 233 225 220 219 221 220 216 217 213 211 211 211 211 210 207 206 206 207 208 209 209 213 209 206 204 193 186 182 182 185 185 177 179 176 176 178 183 183 177 172 169 172
349 353 356 354 345 346 352 352 352 353 351 350 352 347 347 347 347 346 346 348 345 346 345 346 348 353 357 353 351 345 348 345 341 337 330 322 309 296 278 264 254 248 241 236 232 226 226 222 224 220 220 215 215 216 216 213 211 208 206 209 207 206 206 208 212 211 209 209 202 194 190 187 185 185 183 178 172 177 173 178 180 170 172 169 172
333 321 328 333 336 332 334 338 338 340 345 348 345 347 341 337 338 337 337 337 335 337 338 339 340 346 347 343 338 340 340 341 342 344 343 338 330 316 302 287 269 258 248 241 239 235 232 228 227 224 222 216 219 219 216 211 210 209 209 210 209 207 206 206 208 210 209 205 204 203 199 190 193 192 189 179 182 172 165 171 176 171 172 171 165
310 312 314 316 314 317 315 322 330 335 339 340 343 340 337 336 336 337 335 328 336 335 337 336 336 333 333 332 333 333 337 337 344 347 344 341 337 330 320 310 293 273 264 253 247 239 235 233 230 227 223 221 224 224 219 214 206 207 206 208 209 210 208 208 205 202 201 203 203 206 209 197 191 190 188 186 186 187 188 179 167 168 169 167 175
242 249 267 280 293 298 302 301 304 313 315 321 325 323 325 323 322 327 324 320 329 326 330 327 324 322 323 326 331 336 336 342 344 342 344 345 342 336 329 318 306 293 279 267 251 249 243 237 234 230 227 226 227 226 220 211 211 206 202 207 207 210 208 208 210 208 206 196 198 203 206 201 196 192 190 186 184 186 186 188 183 178 173 170 171
254 255 252 260 273 277 286 288 289 288 291 298 302 307 315 319 321 324 317 311 311 313 316 315 310 312 320 326 330 333 338 338 341 342 341 340 336 335 331 324 318 309 294 279 265 253 249 243 240 238 234 233 232 228 218 214 210 208 203 205 208 210 208 211 211 211 207 193 194 192 194 191 196 192 183 188 188 186 184 180 179 181 185 188 184
282 274 265 256 261 265 265 274 273 275 281 282 285 293 302 300 316 311 316 312 309 307 304 303 301 306 317 320 323 330 330 332 333 332 331 334 335 334 333 330 324 314 307 293 276 265 256 250 242 242 241 238 239 221 218 215 211 209 206 201 212 210 210 212 212 209 204 198 192 190 191 191 190 191 186 187 179 182 182 179 178 182 187 189 193
270 265 264 260 257 258 260 261 268 270 266 270 271 273 277 284 291 303 307 307 308 309 306 304 301 307 314 320 322 326 326 325 324 324 327 328 332 330 324 319 313 314 309 298 288 274 266 256 248 245 246 244 240 234 223 218 213 210 209 203 213 210 213 215 213 210 201 197 192 189 187 188 184 187 185 179 174 172 174 175 177 180 184 191 193
287 280 268 260 260 262 263 265 268 266 270 280 286 279 288 294 297 302 301 297 300 298 299 295 295 301 310 317 321 321 321 321 321 321 321 319 318 318 322 322 322 317 312 304 298 290 274 263 258 251 251 248 243 231 224 220 215 211 211 206 211 214 216 218 218 215 209 198 190 188 187 185 176 185 185 178 173 176 177 179 179 181 178 181 187
284 283 281 276 265 264 274 284 279 278 277 274 276 282 291 289 296 298 296 295 293 297 293 291 292 299 308 314 316 315 314 313 313 315 316 316 316 313 314 314 315 310 301 293 288 280 277 271 261 255 254 253 247 227 226 223 219 215 211 210 212 214 218 218 217 215 207 193 186 185 186 184 180 187 188 187 184 172 177 178 180 181 180 182 190
266 266 271 274 275 275 280 288 292 287 285 283 283 284 281 282 286 279 280 282 287 287 292 294 296 304 312 313 313 310 307 306 305 305 304 305 309 311 308 304 298 295 297 296 291 282 277 274 269 261 256 257 255 233 229 223 218 217 211 214 214 215 220 219 218 212 198 194 187 184 183 179 186 189 189 190 189 182 183 181 178 178 178 180 183
255 264 269 272 275 279 282 283 288 288 282 281 282 278 279 283 285 287 288 291 290 292 294 295 296 306 313 317 316 313 310 307 303 298 297 296 294 289 290 297 296 299 295 283 279 282 277 272 268 266 257 261 261 241 232 230 222 216 211 213 214 216 219 219 218 206 192 195 191 194 191 182 186 184 189 192 191 182 183 183 177 175 177 181 181
239 243 256 263 263 265 276 285 281 281 283 287 286 284 284 281 282 286 286 287 289 292 296 299 303 308 315 316 317 314 310 306 303 300 300 299 295 290 286 279 272 272 276 285 282 277 274 266 262 260 263 260 262 254 237 234 227 221 216 215 216 218 220 218 212 210 206 190 194 201 198 194 191 185 191 194 191 186 185 184 181 176 181 185 184
249 247 240 250 267 294 296 290 287 284 289 295 298 299 290 290 292 295 292 286 290 290 289 290 294 304 309 312 311 310 306 303 304 305 306 299 295 293 287 285 278 268 274 275 270 265 270 271 261 258 256 252 258 255 238 236 230 225 219 214 214 215 220 215 205 205 202 206 197 193 203 202 197 193 195 195 194 189 186 186 181 186 184 185 158
267 270 279 283 279 277 276 280 283 289 296 297 302 300 292 289 293 294 286 288 292 290 294 291 298 301 304 304 304 302 301 301 302 303 302 299 294 290 289 286 285 284 276 273 270 267 263 266 259 252 254 251 247 251 242 232 234 230 225 220 216 216 215 206 205 204 204 199 190 194 188 200 199 195 194 197 197 196 187 187 190 193 192 173 161
293 299 315 312 313 297 291 287 282 285 288 292 294 289 285 288 289 283 282 302 293 294 297 300 301 300 301 300 299 299 297 298 301 302 302 299 297 294 291 289 284 278 275 273 275 271 268 269 269 250 249 251 242 237 242 233 233 234 231 225 222 217 204 200 201 209 203 194 188 184 177 195 199 195 193 198 198 199 193 185 194 185 167 166 162
318 319 314 319 309 299 293 290 292 292 291 289 293 285 284 284 282 279 296 299 291 300 301 302 301 300 298 297 295 295 295 296 296 298 299 296 296 296 291 285 281 280 275 273 267 264 263 266 268 260 248 245 241 238 235 233 231 233 234 233 228 214 202 198 203 206 206 199 179 189 187 194 196 194 195 198 199 198 192 186 185 180 174 168 158
299 284 291 308 301 293 291 291 291 291 293 294 291 285 283 284 279 290 303 292 299 301 301 301 297 295 297 294 294 293 289 289 290 292 293 290 289 289 287 282 280 275 275 271 271 263 256 259 261 264 254 242 236 234 234 232 230 231 235 236 235 219 197 198 203 210 206 186 182 179 184 193 196 198 197 198 200 199 188 183 178 181 176 170 156
303 303 307 310 294 294 296 294 293 295 293 293 286 283 284 281 284 304 295 301 304 303 301 296 295 294 293 293 294 290 288 288 286 285 284 284 284 284 285 283 278 273 267 267 268 263 257 259 260 258 260 249 232 229 228 232 231 231 232 236 237 232 206 195 198 209 199 195 189 186 189 194 196 198 199 201 202 201 184 177 184 182 176 161 157
303 304 312 311 305 297 295 293 294 294 295 296 290 282 281 282 295 301 303 306 307 303 298 293 292 291 290 293 292 290 287 284 283 279 275 275 277 280 279 280 278 270 266 264 266 265 258 256 256 258 256 251 236 223 232 227 228 233 233 235 236 239 224 206 194 194 194 189 188 189 191 193 197 197 198 200 199 202 181 176 180 178 174 162 156
308 311 322 317 310 305 299 297 295 294 298 299 293 289 283 292 297 304 308 309 304 298 293 292 289 290 290 288 286 287 289 288 284 282 276 272 271 270 269 270 269 268 266 263 262 262 260 255 253 252 252 248 237 229 228 221 219 224 228 229 233 241 235 217 205 193 188 185 186 186 187 190 192 195 196 195 193 192 187 178 180 176 150 153 158
313 317 320 311 307 302 300 299 295 295 300 299 296 294 297 302 305 309 314 311 301 295 293 291 289 288 286 285 284 283 283 283 281 279 279 277 271 268 269 267 267 266 264 263 258 257 254 252 253 251 250 243 238 231 222 214 211 213 221 219 224 227 230 210 203 190 181 175 172 183 186 190 193 196 195 187 187 184 183 146 144 137 142 142 150
316 317 317 310 310 307 303 302 296 303 307 306 303 304 308 313 316 319 315 307 298 294 290 287 285 285 281 281 279 278 277 279 278 276 268 267 270 272 270 271 264 262 261 263 265 261 255 251 249 249 245 244 243 235 226 209 208 207 207 212 215 217 219 214 196 177 165 168 172 178 178 181 186 193 192 180 160 142 129 140 133 138 138 142 144
313 316 315 314 311 311 310 307 304 308 307 304 305 306 310 313 313 309 305 295 293 292 288 283 282 279 279 280 278 276 273 273 275 277 281 278 271 273 275 275 277 272 268 266 264 262 257 255 252 247 234 240 243 241 226 211 214 214 217 215 216 215 217 207 188 182 165 171 181 182 184 182 182 182 178 176 170 156 144 132 151 145 144 149 152
325 324 316 315 312 310 308 304 305 309 305 305 302 302 303 301 298 294 292 286 284 284 282 281 281 278 277 278 277 277 277 274 276 278 280 282 287 280 271 272 273 274 275 273 270 267 266 261 255 255 245 237 243 245 221 208 213 217 217 217 218 218 218 212 186 177 174 181 183 188 188 185 186 178 175 176 169 160 154 143 135 146 144 142 139